map of KUXL home
Great Circle Mapper logo
KUXL - Airport
Location
City:  Sulphur, Louisiana, United States
Name:Southland Field
ICAO:KUXL
FAA LID:UXL

Details
Type:Airport (Airfield)
Use:Public/Civil
Latitude:3007'53"N (30.131444)
Longitude:9322'34"W (-93.376166)
Datum:WGS 1984
Elevation:10 ft (3 m)
Variation:1.43E (WMM2015 magnetic declination)
-0.11 annual change
Runways:1
Longest:5001 × 75 ft (1524 × 23 m), paved

Time
Time Zone:UTC-6 (DST-5)
Local Time:

Weather
METAR:KUXL 291055Z AUTO 00000KT 3SM 22/22 A3008 RMK AO2 SKY OBSCURED T02230222 PWINO

Related Locations
Nearby:
Farthest:CCK: 11036 mi / 17761 km
West Island (Pulau Panjang) [Cocos (Keeling) Islands], CC

Find:

   beyond  
but within

Other Information
Maps:
NOTAMs:
Links:
Sources:

  
flag of United States
flag of Louisiana
  

Sectional Chart

Flight Planning
at skyvector.com

Satellite Image

Google Maps Satellite view

 

Copyright © 2004-2016 Karl L. Swartz. All rights reserved.
The Great Circle Mapper name and logo are trademarks of the Great Circle Mapper.
All other trademarks mentioned herein belong to their respective owners.
Please see credits for attibutions and further copyright information.

  Follow gcmap on Facebook Follow gcmap on Twitter Follow gcmap on Google+ GCmap on LinkedIn

hCard Microformat

Geo Microformat